Pellston, MI

4:24 AM EDT on March 29, 2017 (GMT -0400)
Pellston Regional Airport Of Emmet County

Weather History for KPLN - September, 2013

Change the Weather History Date:

Sunday, September 29, 2013

  Actual Average Record
Temperature  
Mean Temperature 56 °F -  
Max Temperature 70 °F 61 °F 79 °F (1948)
Min Temperature 41 °F 41 °F 22 °F (1961)
Degree Days  
Heating Degree Days 9    
Growing Degree Days 6 (Base 50)    
Moisture  
Dew Point 50 °F    
Average Humidity 76    
Maximum Humidity 97    
Minimum Humidity 46    
Precipitation  
Precipitation 0.15 in - - ()
Sea Level Pressure  
Sea Level Pressure 29.96 in    
Wind  
Wind Speed 7 mph (West)    
Max Wind Speed 14 mph    
Max Gust Speed 22 mph    
Visibility 9 miles    
Events Rain    
Averages and records for this station are not official NWS values.
T = Trace of Precipitation, MM = Missing Value Source: NWS Daily Summary

Daily Weather History Graph

Daily Weather History Graph

Search for Another Location

Airport or City:

Trip Planner

Search our weather history database for the weather conditions in past years. The results will help you decide how hot, cold, wet, or windy it might be!

Date:

Astronomy

Sep. 29, 2013 Rise Set
Actual Time 7:35 AM EDT 7:22 PM EDT
Civil Twilight 7:05 AM EDT 7:52 PM EDT
Nautical Twilight 6:31 AM EDT 8:26 PM EDT
Astronomical Twilight 5:56 AM EDT 9:01 PM EDT
Moon 2:02 AM EDT 4:30 PM EDT
Length of Visible Light 12h 46m
Length of Day
11h 47m
Waning Crescent, 27% of the Moon is Illuminated
Sep 29
Waning Crescent
Oct 4
New
Oct 11
First Quarter
Oct 18
Full
Oct 26
Last Quarter

Hourly Weather History & Observations

Time (EDT) Temp. Dew Point Humidity Pressure Visibility Wind Dir Wind Speed Gust Speed Precip Events Conditions
12:54 AM 70.0 °F 51.1 °F 51% 29.84 in 10.0 mi South 10.4 mph - N/A   Overcast
1:54 AM 66.0 °F 55.0 °F 68% 29.85 in 10.0 mi SW 8.1 mph 19.6 mph 0.00 in Rain Light Rain
2:54 AM 62.1 °F 57.9 °F 86% 29.86 in 8.0 mi WSW 5.8 mph - 0.04 in Rain Light Rain
3:14 AM 62.6 °F 60.8 °F 94% 29.86 in 6.0 mi SW 3.5 mph - 0.02 in Rain Rain
3:31 AM 62.6 °F 60.8 °F 94% 29.86 in 6.0 mi West 8.1 mph - 0.04 in Rain Light Rain
3:54 AM 62.1 °F 60.1 °F 93% 29.86 in 5.0 mi West 9.2 mph - 0.08 in Rain Light Rain
4:15 AM 59.0 °F 57.2 °F 94% 29.88 in 4.0 mi West 13.8 mph - 0.01 in Rain Light Rain
4:54 AM 55.9 °F 52.0 °F 87% 29.88 in 8.0 mi NW 8.1 mph - 0.02 in Rain Light Rain
5:04 AM 55.4 °F 51.8 °F 88% 29.88 in 10.0 mi NNW 5.8 mph - 0.00 in Rain Light Rain
5:54 AM 55.9 °F 53.1 °F 90% 29.92 in 10.0 mi West 3.5 mph - 0.00 in   Overcast
6:54 AM 55.9 °F 52.0 °F 87% 29.93 in 10.0 mi Variable 6.9 mph - N/A   Overcast
7:54 AM 54.0 °F 51.1 °F 90% 29.94 in 10.0 mi WNW 5.8 mph - N/A   Partly Cloudy
8:54 AM 53.1 °F 50.0 °F 89% 29.97 in 10.0 mi West 5.8 mph - N/A   Clear
9:54 AM 57.9 °F 48.9 °F 72% 29.99 in 10.0 mi WNW 11.5 mph 20.7 mph 0.01 in   Clear
10:54 AM 59.0 °F 46.9 °F 64% 30.00 in 10.0 mi WNW 10.4 mph - N/A   Scattered Clouds
11:54 AM 60.1 °F 46.0 °F 60% 30.01 in 10.0 mi NW 10.4 mph 17.3 mph N/A   Mostly Cloudy
12:02 PM 60.8 °F 46.4 °F 59% 30.01 in 10.0 mi NW 11.5 mph 20.7 mph N/A   Scattered Clouds
12:54 PM 61.0 °F 45.0 °F 56% 30.02 in 10.0 mi WNW 13.8 mph 21.9 mph N/A   Clear
1:54 PM 63.0 °F 46.9 °F 56% 30.02 in 10.0 mi NW 9.2 mph - N/A   Clear
2:54 PM 63.0 °F 46.0 °F 54% 30.01 in 10.0 mi Variable 3.5 mph - N/A   Clear
3:54 PM 64.0 °F 45.0 °F 50% 30.00 in 10.0 mi West 3.5 mph - N/A   Clear
4:54 PM 64.9 °F 44.1 °F 47% 30.00 in 10.0 mi NW 3.5 mph - N/A   Clear
5:54 PM 64.0 °F 43.0 °F 46% 30.00 in 10.0 mi West 3.5 mph - N/A   Clear
6:54 PM 59.0 °F 46.9 °F 64% 30.01 in 10.0 mi West 4.6 mph - N/A   Clear
7:54 PM 53.1 °F 48.0 °F 83% 30.02 in 10.0 mi Calm Calm - N/A   Clear
8:54 PM 46.9 °F 46.0 °F 97% 30.03 in 10.0 mi Calm Calm - N/A   Clear
9:54 PM 45.0 °F 43.0 °F 93% 30.03 in 10.0 mi Calm Calm - N/A   Clear
10:54 PM 42.1 °F 41.0 °F 96% 30.03 in 10.0 mi Calm Calm - N/A   Clear
11:54 PM 41.0 °F 39.9 °F 96% 30.03 in 8.0 mi Calm Calm - N/A   Clear